STARLINK-2228 (48576 NORAD) Tracking and Keplerian Element Data

This shows tracking and keplerian element data for the satellite.

Feedback or suggestion? Click here.




ElementValue
Catalog48576
NameSTARLINK-2228
Epoch Orbit364
Epoch Day214.91667824
Epoch Year2021
RAAN104.0875
Inclination53.056
Eccentricity0.0001812
Argument of Perigee47.1235
Mean Anonmoly126.1074
Mean Motion15.42183896
Decay Rate-0.00030473
L11 48576U 21041Z 21214.91667824 -.00030473 00000-0 -69291-3 0 9990
L22 48576 53.0560 104.0875 0001812 47.1235 126.1074 15.42183896 3641

Live tracking and technical data element details for STARLINK-2228 (NORAD 48576). STARLINK-2228 can be tracked NOW for your location showing map with azimuth and elevation plus other details from your city location.

Track the satellite on the map from your city or location and see movement details for azimuth, elevation, latitude, longitude, range, height, and movement on the map or in text.







IsCatalogInMostPopularTable: catalog: 48576, numindb: 21
Update: records affected: 1



GetName: 48576 STARLINK-2228

Hit Count: updated at: Tue, 03 Aug 2021 23:43:46 GMT